| time (UTC) | temp F | wind direction | speed knots | gust knots | rain 1hr in | rain 24hr in | rain mn in | humidity % | barometer mb |
| 20260506202026 | 44 | 298 | 4.3 | 8.7 | 0.03 | 0.25 | 0.25 | 93 | 1005.7 |
| 20260506201530 | 44 | 296 | 5.2 | 9.6 | 0.03 | 0.25 | 0.25 | 93 | 1005.6 |
| 20260506201027 | 44 | 302 | 5.2 | 10.4 | 0.03 | 0.25 | 0.25 | 93 | 1005.6 |
| 20260506200525 | 44 | 311 | 4.3 | 10.4 | 0.02 | 0.24 | 0.24 | 93 | 1005.6 |
| 20260506200036 | 44 | 294 | 4.3 | 7.8 | 0.02 | 0.24 | 0.24 | 93 | 1005.5 |
| 20260506195525 | 44 | 310 | 4.3 | 9.6 | 0.02 | 0.24 | 0.24 | 93 | 1005.5 |
| 20260506195027 | 44 | 278 | 5.2 | 15.6 | 0.01 | 0.23 | 0.23 | 93 | 1005.5 |
| 20260506194525 | 44 | 302 | 8.7 | 15.6 | 0.02 | 0.23 | 0.23 | 93 | 1005.5 |
| 20260506194024 | 44 | 298 | 7.0 | 13.0 | 0.02 | 0.23 | 0.23 | 93 | 1005.5 |
| 20260506193524 | 44 | 321 | 6.1 | 8.7 | 0.01 | 0.22 | 0.22 | 93 | 1005.3 |
| 20260506193027 | 44 | 306 | 5.2 | 9.6 | 0.01 | 0.22 | 0.22 | 93 | 1005.4 |
| 20260506192524 | 44 | 279 | 5.2 | 9.6 | 0.01 | 0.22 | 0.22 | 93 | 1005.2 |
| 20260506192023 | 44 | 309 | 6.1 | 9.6 | 0.01 | 0.22 | 0.22 | 93 | 1005.2 |
| 20260506191523 | 44 | 313 | 6.1 | 9.6 | 0.01 | 0.22 | 0.22 | 93 | 1005.1 |
| 20260506191022 | 44 | 317 | 5.2 | 9.6 | 0.01 | 0.22 | 0.22 | 93 | 1005.1 |
| 20260506190525 | 45 | 288 | 4.3 | 7.0 | 0.01 | 0.22 | 0.22 | 93 | 1005.0 |
| 20260506190021 | 45 | 304 | 3.5 | 7.0 | 0.01 | 0.22 | 0.22 | 93 | 1004.9 |
| 20260506185521 | 45 | 296 | 2.6 | 7.0 | 0.01 | 0.22 | 0.22 | 93 | 1004.8 |
| 20260506185022 | 45 | 291 | 3.5 | 7.8 | 0.01 | 0.22 | 0.22 | 93 | 1004.8 |
| 20260506184521 | 45 | 281 | 3.5 | 7.0 | 0.00 | 0.21 | 0.21 | 93 | 1004.8 |
| 20260506184021 | 45 | 265 | 3.5 | 7.0 | 0.00 | 0.21 | 0.21 | 93 | 1004.9 |
| 20260506183521 | 44 | 287 | 2.6 | 7.8 | 0.00 | 0.21 | 0.21 | 93 | 1004.7 |
| 20260506183021 | 44 | 288 | 1.7 | 7.8 | 0.00 | 0.21 | 0.21 | 93 | 1004.7 |
| 20260506182520 | 44 | 308 | 2.6 | 6.1 | 0.00 | 0.21 | 0.21 | 93 | 1004.7 |
| 20260506182020 | 44 | 305 | 0.9 | 7.8 | 0.00 | 0.21 | 0.21 | 93 | 1004.7 |
| 20260506181521 | 44 | 320 | 5.2 | 8.7 | 0.00 | 0.21 | 0.21 | 93 | 1004.6 |
| 20260506181020 | 44 | 276 | 4.3 | 8.7 | 0.00 | 0.21 | 0.21 | 93 | 1004.7 |
| 20260506180520 | 44 | 280 | 0.9 | 7.0 | 0.00 | 0.21 | 0.21 | 93 | 1004.8 |
| 20260506180020 | 44 | 300 | 2.6 | 7.8 | 0.00 | 0.21 | 0.21 | 93 | 1004.5 |
| 20260506175520 | 44 | 309 | 4.3 | 7.8 | 0.00 | 0.21 | 0.21 | 93 | 1004.6 |
| 20260506175018 | 44 | 295 | 2.6 | 5.2 | 0.01 | 0.21 | 0.21 | 93 | 1004.6 |
| 20260506174519 | 44 | 288 | 2.6 | 6.1 | 0.01 | 0.21 | 0.21 | 93 | 1004.5 |
| 20260506174018 | 44 | 296 | 0.9 | 4.3 | 0.01 | 0.21 | 0.21 | 93 | 1004.4 |
| 20260506173518 | 44 | 302 | 0.9 | 4.3 | 0.01 | 0.21 | 0.21 | 93 | 1004.4 |
| 20260506173022 | 44 | 301 | 0.9 | 3.5 | 0.01 | 0.21 | 0.21 | 93 | 1004.4 |
| 20260506172518 | 44 | 306 | 0.9 | 5.2 | 0.01 | 0.21 | 0.21 | 93 | 1004.5 |
| 20260506172017 | 44 | 300 | 2.6 | 5.2 | 0.01 | 0.21 | 0.21 | 93 | 1004.5 |
| 20260506171518 | 44 | 305 | 2.6 | 4.3 | 0.01 | 0.21 | 0.21 | 93 | 1004.6 |
| 20260506171021 | 44 | 295 | 1.7 | 3.5 | 0.02 | 0.21 | 0.21 | 93 | 1004.6 |
| 20260506170518 | 44 | 289 | 1.7 | 3.5 | 0.02 | 0.21 | 0.21 | 93 | 1004.5 |
| 20260506170016 | 44 | 288 | 1.7 | 3.5 | 0.03 | 0.21 | 0.21 | 93 | 1004.7 |
| 20260506165516 | 43 | 298 | 1.7 | 4.3 | 0.04 | 0.21 | 0.21 | 93 | 1004.6 |
| 20260506165017 | 43 | 299 | 1.7 | 4.3 | 0.03 | 0.20 | 0.20 | 93 | 1004.6 |
| 20260506164516 | 43 | 321 | 2.6 | 7.0 | 0.03 | 0.20 | 0.20 | 93 | 1004.5 |
| 20260506164015 | 44 | 292 | 2.6 | 7.0 | 0.03 | 0.20 | 0.20 | 93 | 1004.6 |
| 20260506163516 | 44 | 298 | 3.5 | 9.6 | 0.04 | 0.20 | 0.20 | 93 | 1004.7 |
| 20260506163017 | 44 | 304 | 5.2 | 9.6 | 0.04 | 0.20 | 0.20 | 93 | 1004.7 |
| 20260506162514 | 44 | 331 | 5.2 | 8.7 | 0.05 | 0.20 | 0.20 | 93 | 1004.7 |
| 20260506162013 | 44 | 304 | 4.3 | 9.6 | 0.05 | 0.20 | 0.20 | 93 | 1004.7 |
| 20260506161513 | 45 | 300 | 5.2 | 8.7 | 0.05 | 0.20 | 0.20 | 93 | 1004.8 |
| 20260506161011 | 45 | 289 | 1.7 | 3.5 | 0.04 | 0.19 | 0.19 | 93 | 1004.6 |
| 20260506160511 | 45 | 306 | 0.0 | 6.1 | 0.03 | 0.18 | 0.18 | 93 | 1004.4 |
| 20260506160015 | 45 | 304 | 3.5 | 6.1 | 0.03 | 0.18 | 0.18 | 93 | 1004.6 |
| 20260506155514 | 45 | 328 | 2.6 | 9.6 | 0.02 | 0.17 | 0.17 | 93 | 1004.6 |
| 20260506155009 | 46 | 310 | 5.2 | 9.6 | 0.02 | 0.17 | 0.17 | 92 | 1004.6 |
| 20260506154508 | 46 | 332 | 5.2 | 10.4 | 0.02 | 0.17 | 0.17 | 92 | 1004.5 |
| 20260506153507 | 48 | 325 | 7.0 | 10.4 | 0.02 | 0.16 | 0.16 | 92 | 1004.3 |
| 20260506153007 | 49 | 341 | 6.1 | 10.4 | 0.02 | 0.16 | 0.16 | 92 | 1004.4 |
| 20260506152506 | 51 | 302 | 7.0 | 9.6 | 0.01 | 0.15 | 0.15 | 92 | 1004.4 |
| 20260506152005 | 51 | 318 | 5.2 | 7.8 | 0.01 | 0.15 | 0.15 | 93 | 1004.2 |
| 20260506151507 | 52 | 325 | 2.6 | 7.0 | 0.02 | 0.15 | 0.15 | 93 | 1004.1 |
| 20260506151005 | 52 | 309 | 1.7 | 7.0 | 0.02 | 0.15 | 0.15 | 93 | 1004.0 |
| 20260506150504 | 52 | 301 | 2.6 | 4.3 | 0.03 | 0.15 | 0.15 | 93 | 1004.0 |
| 20260506150005 | 52 | 292 | 1.7 | 4.3 | 0.03 | 0.15 | 0.15 | 92 | 1004.1 |
| 20260506145503 | 53 | 299 | 2.6 | 9.6 | 0.04 | 0.15 | 0.15 | 93 | 1004.1 |
| 20260506145004 | 53 | 220 | 1.7 | 9.6 | 0.05 | 0.15 | 0.15 | 93 | 1004.1 |
| 20260506144503 | 53 | 221 | 2.6 | 7.0 | 0.05 | 0.15 | 0.15 | 93 | 1004.1 |
| 20260506144003 | 53 | 209 | 3.5 | 7.8 | 0.05 | 0.14 | 0.14 | 94 | 1004.1 |
| 20260506143600 | 53 | 182 | 3.5 | 7.8 | 0.06 | 0.14 | 0.14 | 94 | 1004.3 |
| 20260506143102 | 53 | 219 | 4.3 | 7.8 | 0.07 | 0.14 | 0.14 | 94 | 1004.3 |
| 20260506142558 | 52 | 225 | 1.7 | 7.8 | 0.07 | 0.14 | 0.14 | 94 | 1004.4 |
| 20260506142057 | 52 | 205 | 2.6 | 7.8 | 0.08 | 0.14 | 0.14 | 94 | 1004.4 |
| 20260506141610 | 52 | 211 | 2.6 | 7.8 | 0.07 | 0.13 | 0.13 | 94 | 1004.3 |
| 20260506141055 | 51 | 205 | 1.7 | 4.3 | 0.07 | 0.13 | 0.13 | 94 | 1004.4 |
| 20260506140555 | 50 | 239 | 0.0 | 0.9 | 0.06 | 0.12 | 0.12 | 93 | 1004.4 |
| 20260506140053 | 50 | 319 | 0.0 | 1.7 | 0.06 | 0.12 | 0.12 | 93 | 1004.6 |
| 20260506135552 | 50 | 319 | 0.9 | 2.6 | 0.05 | 0.11 | 0.11 | 93 | 1004.7 |
| 20260506135052 | 50 | 319 | 0.9 | 2.6 | 0.04 | 0.10 | 0.10 | 93 | 1004.7 |
| 20260506134552 | 50 | 319 | 1.7 | 2.6 | 0.04 | 0.10 | 0.10 | 93 | 1004.9 |
| 20260506134052 | 50 | 319 | 0.9 | 3.5 | 0.03 | 0.09 | 0.09 | 93 | 1004.8 |
| 20260506133552 | 50 | 319 | 1.7 | 3.5 | 0.03 | 0.08 | 0.08 | 93 | 1004.8 |
| 20260506133101 | 50 | 313 | 1.7 | 3.5 | 0.02 | 0.07 | 0.07 | 93 | 1004.8 |
| 20260506132551 | 50 | 211 | 0.0 | 3.5 | 0.02 | 0.07 | 0.07 | 93 | 1004.6 |
| 20260506132050 | 50 | 193 | 0.0 | 2.6 | 0.01 | 0.06 | 0.06 | 93 | 1004.6 |
| 20260506131554 | 50 | 125 | 0.0 | 1.7 | 0.01 | 0.06 | 0.06 | 93 | 1004.5 |
| 20260506131050 | 50 | 125 | 0.9 | 1.7 | 0.01 | 0.06 | 0.06 | 93 | 1004.4 |
| 20260506130550 | 50 | 124 | 0.9 | 1.7 | 0.01 | 0.06 | 0.06 | 93 | 1004.3 |
| 20260506130050 | 50 | 125 | 0.0 | 2.6 | 0.01 | 0.06 | 0.06 | 94 | 1004.4 |
| 20260506125548 | 49 | 125 | 0.0 | 2.6 | 0.01 | 0.06 | 0.06 | 93 | 1004.3 |
| 20260506125047 | 49 | 125 | 0.9 | 2.6 | 0.01 | 0.06 | 0.06 | 93 | 1004.2 |
| 20260506124548 | 49 | 126 | 0.9 | 1.7 | 0.01 | 0.06 | 0.06 | 93 | 1004.3 |
| 20260506124047 | 49 | 126 | 0.9 | 1.7 | 0.01 | 0.06 | 0.06 | 93 | 1004.2 |
| 20260506123546 | 49 | 126 | 0.0 | 1.7 | 0.00 | 0.05 | 0.05 | 93 | 1004.4 |
| 20260506123046 | 48 | 126 | 0.9 | 1.7 | 0.00 | 0.05 | 0.05 | 93 | 1004.5 |
| 20260506122543 | 48 | 126 | 0.0 | 2.6 | 0.01 | 0.05 | 0.05 | 93 | 1004.6 |
| 20260506122043 | 48 | 126 | 0.9 | 3.5 | 0.01 | 0.05 | 0.05 | 93 | 1004.5 |
| 20260506121548 | 48 | 126 | 1.7 | 3.5 | 0.01 | 0.05 | 0.05 | 93 | 1004.6 |
| 20260506121041 | 47 | 192 | 1.7 | 2.6 | 0.01 | 0.05 | 0.05 | 93 | 1004.7 |
| 20260506120540 | 47 | 192 | 0.0 | 2.6 | 0.01 | 0.05 | 0.05 | 93 | 1004.7 |
| 20260506120106 | 47 | 194 | 0.9 | 2.6 | 0.01 | 0.05 | 0.05 | 93 | 1004.7 |
| 20260506115539 | 47 | 195 | 1.7 | 2.6 | 0.01 | 0.05 | 0.05 | 93 | 1004.9 |
| 20260506115138 | 47 | 202 | 0.9 | 2.6 | 0.02 | 0.05 | 0.05 | 93 | 1004.9 |
| 20260506114543 | 47 | 215 | 0.9 | 2.6 | 0.02 | 0.05 | 0.05 | 93 | 1005.2 |
| 20260506114037 | 47 | 302 | 0.0 | 1.7 | 0.02 | 0.05 | 0.05 | 93 | 1005.2 |
| 20260506113537 | 47 | 302 | 0.0 | 0.9 | 0.02 | 0.05 | 0.05 | 93 | 1005.3 |
| 20260506113038 | 47 | 302 | 0.0 | 0.9 | 0.02 | 0.05 | 0.05 | 93 | 1005.5 |
| 20260506112538 | 47 | 302 | 0.0 | 0.9 | 0.01 | 0.04 | 0.04 | 93 | 1005.4 |
| 20260506112036 | 47 | 302 | 0.0 | 0.0 | 0.01 | 0.04 | 0.04 | 93 | 1005.4 |
| 20260506111539 | 47 | 302 | 0.0 | 2.6 | 0.01 | 0.04 | 0.04 | 93 | 1005.5 |
| 20260506111036 | 47 | 302 | 0.9 | 2.6 | 0.02 | 0.04 | 0.04 | 93 | 1005.5 |
| 20260506110536 | 47 | 302 | 1.7 | 3.5 | 0.02 | 0.04 | 0.04 | 93 | 1005.6 |
| 20260506110036 | 47 | 301 | 0.9 | 2.6 | 0.02 | 0.04 | 0.04 | 93 | 1005.5 |
| 20260506105538 | 47 | 39 | 0.0 | 1.7 | 0.02 | 0.04 | 0.04 | 93 | 1005.4 |
| 20260506105036 | 47 | 39 | 0.0 | 1.7 | 0.01 | 0.03 | 0.03 | 93 | 1005.3 |
| 20260506104535 | 47 | 40 | 0.0 | 2.6 | 0.01 | 0.03 | 0.03 | 93 | 1005.0 |
| 20260506104035 | 46 | 40 | 0.9 | 4.3 | 0.02 | 0.03 | 0.03 | 93 | 1005.1 |
| 20260506103535 | 46 | 251 | 0.9 | 4.3 | 0.02 | 0.03 | 0.03 | 93 | 1005.2 |
| 20260506103036 | 46 | 325 | 1.7 | 2.6 | 0.02 | 0.03 | 0.03 | 93 | 1005.1 |
| 20260506102535 | 46 | 281 | 0.9 | 2.6 | 0.02 | 0.03 | 0.03 | 93 | 1005.1 |
| 20260506102034 | 46 | 279 | 0.9 | 2.6 | 0.02 | 0.03 | 0.03 | 93 | 1005.1 |
| 20260506101533 | 46 | 287 | 0.9 | 2.6 | 0.02 | 0.03 | 0.03 | 93 | 1005.0 |
| 20260506101033 | 46 | 223 | 0.0 | 0.0 | 0.02 | 0.02 | 0.02 | 93 | 1005.0 |
| 20260506100533 | 46 | 217 | 0.0 | 1.7 | 0.02 | 0.02 | 0.02 | 93 | 1005.0 |
| 20260506100034 | 46 | 217 | 0.0 | 2.6 | 0.02 | 0.02 | 0.02 | 93 | 1005.1 |
| 20260506095533 | 46 | 318 | 0.0 | 2.6 | 0.02 | 0.02 | 0.02 | 93 | 1005.3 |
| 20260506095033 | 46 | 325 | 0.9 | 4.3 | 0.02 | 0.02 | 0.02 | 93 | 1005.0 |
| 20260506094536 | 46 | 205 | 0.9 | 6.1 | 0.02 | 0.02 | 0.02 | 93 | 1005.2 |
| 20260506094032 | 46 | 202 | 3.5 | 6.1 | 0.01 | 0.01 | 0.01 | 92 | 1004.9 |
| 20260506093531 | 46 | 279 | 1.7 | 3.5 | 0.01 | 0.01 | 0.01 | 92 | 1005.5 |
| 20260506093043 | 46 | 314 | 0.9 | 4.3 | 0.01 | 0.01 | 0.01 | 92 | 1005.3 |
| 20260506092530 | 46 | 292 | 0.9 | 3.5 | 0.01 | 0.01 | 0.01 | 92 | 1005.3 |
| 20260506092131 | 46 | 335 | 1.7 | 3.5 | 0.01 | 0.01 | 0.01 | 92 | 1005.2 |
| 20260506091529 | 46 | 338 | 0.9 | 3.5 | 0.01 | 0.01 | 0.01 | 92 | 1005.1 |
| 20260506091029 | 46 | 325 | 1.7 | 2.6 | 0.00 | 0.00 | 0.00 | 92 | 1005.0 |
| 20260506090528 | 46 | 308 | 0.9 | 2.6 | 0.00 | 0.00 | 0.00 | 92 | 1005.1 |
| 20260506090028 | 46 | 307 | 0.0 | 3.5 | 0.00 | 0.00 | 0.00 | 92 | 1005.3 |
| 20260506085527 | 46 | 307 | 1.7 | 3.5 | 0.00 | 0.00 | 0.00 | 92 | 1005.4 |
| 20260506085027 | 46 | 64 | 1.7 | 5.2 | 0.00 | 0.00 | 0.00 | 92 | 1005.3 |
| 20260506084527 | 46 | 103 | 0.9 | 5.2 | 0.00 | 0.00 | 0.00 | 92 | 1005.2 |
| 20260506084027 | 46 | 113 | 0.9 | 3.5 | 0.00 | 0.00 | 0.00 | 92 | 1005.1 |
| 20260506083530 | 46 | 80 | 2.6 | 3.5 | 0.00 | 0.00 | 0.00 | 92 | 1005.0 |
| 20260506083025 | 46 | 85 | 2.6 | 5.2 | 0.00 | 0.00 | 0.00 | 92 | 1005.0 |
| 20260506082524 | 46 | 88 | 2.6 | 5.2 | 0.00 | 0.00 | 0.00 | 92 | 1005.1 |
| 20260506082025 | 46 | 115 | 0.0 | 2.6 | 0.00 | 0.00 | 0.00 | 92 | 1005.2 |
| 20260506081523 | 46 | 115 | 0.0 | 2.6 | 0.00 | 0.00 | 0.00 | 92 | 1005.4 |
| 20260506081023 | 46 | 119 | 0.9 | 4.3 | 0.00 | 0.00 | 0.00 | 92 | 1005.2 |
| 20260506080526 | 46 | 97 | 1.7 | 4.3 | 0.00 | 0.00 | 0.00 | 92 | 1005.0 |
| 20260506073518 | 46 | 302 | 4.3 | 7.0 | 0.00 | 0.00 | 0.00 | 91 | 1006.4 |
| 20260506073017 | 46 | 304 | 0.0 | 0.9 | 0.00 | 0.00 | 0.00 | 91 | 1006.1 |
| 20260506072517 | 46 | 303 | 0.0 | 0.0 | 0.00 | 0.00 | 0.00 | 91 | 1006.0 |
| 20260506072016 | 46 | 303 | 0.0 | 1.7 | 0.00 | 0.00 | 0.00 | 91 | 1006.0 |
| 20260506071517 | 46 | 304 | 0.0 | 1.7 | 0.00 | 0.00 | 0.00 | 91 | 1006.0 |
| 20260506071014 | 46 | 304 | 0.0 | 1.7 | 0.00 | 0.00 | 0.00 | 91 | 1006.3 |
| 20260506070515 | 46 | 304 | 0.0 | 0.0 | 0.00 | 0.00 | 0.00 | 91 | 1006.3 |
| 20260506062509 | 46 | 302 | 1.7 | 3.5 | 0.00 | 0.00 | 0.00 | 91 | 1006.6 |
| 20260506062008 | 46 | 302 | 2.6 | 3.5 | 0.00 | 0.00 | 0.00 | 90 | 1006.6 |
| 20260506061507 | 46 | 296 | 1.7 | 5.2 | 0.00 | 0.00 | 0.00 | 90 | 1006.6 |
| 20260506061012 | 46 | 309 | 2.6 | 5.2 | 0.00 | 0.00 | 0.00 | 90 | 1006.7 |
| 20260506060506 | 46 | 309 | 2.6 | 4.3 | 0.00 | 0.00 | 0.00 | 90 | 1006.8 |
| 20260506051057 | 47 | 299 | 1.7 | 3.5 | 0.00 | 0.00 | 0.00 | 88 | 1007.2 |
| 20260506050559 | 47 | 308 | 1.7 | 3.5 | 0.00 | 0.00 | 0.00 | 88 | 1007.3 |
| 20260506050114 | 47 | 309 | 0.9 | 3.5 | 0.00 | 0.00 | 0.00 | 87 | 1007.3 |
| 20260506045055 | 48 | 302 | 0.9 | 3.5 | 0.00 | 0.00 | 0.00 | 87 | 1007.2 |
| 20260506044601 | 48 | 310 | 2.6 | 4.3 | 0.00 | 0.00 | 0.00 | 86 | 1007.3 |
| 20260506044052 | 48 | 306 | 1.7 | 4.3 | 0.00 | 0.00 | 0.00 | 86 | 1007.3 |
| 20260506043554 | 48 | 295 | 1.7 | 6.1 | 0.00 | 0.00 | 0.00 | 86 | 1007.6 |
| 20260506043051 | 49 | 273 | 1.7 | 6.1 | 0.00 | 0.00 | 0.00 | 86 | 1007.4 |
| 20260506042549 | 49 | 306 | 2.6 | 7.0 | 0.00 | 0.00 | 0.00 | 86 | 1007.6 |
| 20260506040517 | 49 | 304 | 1.7 | 4.3 | 0.00 | 0.00 | 0.00 | 85 | 1007.5 |
| 20260506040017 | 50 | 304 | 1.7 | 3.5 | 0.00 | 0.00 | 0.00 | 85 | 1007.6 |
| 20260506035517 | 50 | 309 | 0.9 | 3.5 | 0.00 | 0.00 | 0.00 | 85 | 1007.5 |
| 20260506035016 | 50 | 292 | 0.0 | 3.5 | 0.00 | 0.00 | 0.00 | 85 | 1007.7 |
| 20260506034516 | 50 | 301 | 1.7 | 3.5 | 0.00 | 0.00 | 0.00 | 85 | 1007.6 |
| 20260506034018 | 50 | 300 | 1.7 | 4.3 | 0.00 | 0.00 | 0.00 | 84 | 1007.6 |
| 20260506033514 | 50 | 308 | 2.6 | 7.8 | 0.00 | 0.00 | 0.00 | 84 | 1007.7 |
| 20260506033016 | 50 | 303 | 3.5 | 7.8 | 0.00 | 0.00 | 0.00 | 84 | 1007.6 |
| 20260506032514 | 50 | 302 | 3.5 | 7.0 | 0.00 | 0.00 | 0.00 | 83 | 1007.8 |
| 20260506032014 | 51 | 313 | 3.5 | 7.0 | 0.00 | 0.00 | 0.00 | 83 | 1007.8 |
| 20260506031516 | 51 | 295 | 1.7 | 4.3 | 0.00 | 0.00 | 0.00 | 83 | 1007.5 |
| 20260506031013 | 51 | 292 | 1.7 | 4.3 | 0.00 | 0.00 | 0.00 | 83 | 1007.4 |
| 20260506030512 | 51 | 305 | 0.9 | 4.3 | 0.00 | 0.00 | 0.00 | 83 | 1007.5 |
| 20260506030012 | 51 | 281 | 1.7 | 4.3 | 0.00 | 0.00 | 0.00 | 84 | 1007.7 |
| 20260506025516 | 51 | 264 | 0.0 | 3.5 | 0.00 | 0.00 | 0.00 | 83 | 1007.5 |
| 20260506025012 | 51 | 292 | 0.0 | 3.5 | 0.00 | 0.00 | 0.00 | 83 | 1007.4 |
| 20260506024511 | 51 | 303 | 0.0 | 1.7 | 0.00 | 0.00 | 0.00 | 83 | 1007.7 |
| 20260506024011 | 51 | 303 | 0.0 | 2.6 | 0.00 | 0.00 | 0.00 | 83 | 1007.7 |
| 20260506023510 | 51 | 257 | 0.0 | 2.6 | 0.00 | 0.00 | 0.00 | 83 | 1007.7 |
| 20260506023010 | 51 | 237 | 0.9 | 3.5 | 0.00 | 0.00 | 0.00 | 83 | 1007.8 |
| 20260506022509 | 51 | 233 | 0.9 | 4.3 | 0.00 | 0.00 | 0.00 | 83 | 1007.7 |
| 20260506022008 | 51 | 299 | 0.9 | 4.3 | 0.00 | 0.00 | 0.00 | 83 | 1007.5 |
| 20260506021507 | 51 | 305 | 1.7 | 4.3 | 0.00 | 0.00 | 0.00 | 83 | 1007.4 |
| 20260506021006 | 51 | 294 | 0.9 | 3.5 | 0.00 | 0.00 | 0.00 | 84 | 1007.6 |
| 20260506020508 | 51 | 288 | 0.9 | 2.6 | 0.00 | 0.00 | 0.00 | 84 | 1007.5 |
| 20260506020007 | 51 | 289 | 0.0 | 5.2 | 0.00 | 0.00 | 0.00 | 84 | 1007.6 |
| 20260506015505 | 51 | 287 | 0.9 | 5.2 | 0.00 | 0.00 | 0.00 | 84 | 1007.4 |
| 20260506015005 | 52 | 292 | 1.7 | 7.8 | 0.00 | 0.00 | 0.00 | 84 | 1007.3 |
| 20260506014505 | 52 | 306 | 5.2 | 7.8 | 0.00 | 0.00 | 0.00 | 84 | 1007.4 |
| 20260506014003 | 52 | 309 | 3.5 | 9.6 | 0.00 | 0.00 | 0.00 | 84 | 1007.3 |
| 20260506013502 | 52 | 309 | 4.3 | 9.6 | 0.00 | 0.00 | 0.00 | 84 | 1007.0 |
| 20260506013003 | 52 | 320 | 4.3 | 8.7 | 0.00 | 0.00 | 0.00 | 85 | 1007.0 |
| 20260506012502 | 52 | 322 | 4.3 | 8.7 | 0.00 | 0.00 | 0.00 | 84 | 1007.0 |
| 20260506012002 | 52 | 313 | 4.3 | 9.6 | 0.00 | 0.00 | 0.00 | 84 | 1007.0 |
| 20260506011600 | 52 | 301 | 5.2 | 12.2 | 0.00 | 0.00 | 0.00 | 84 | 1007.1 |
| 20260506011059 | 53 | 320 | 7.8 | 12.2 | 0.00 | 0.00 | 0.00 | 84 | 1007.2 |
| 20260506010558 | 53 | 308 | 5.2 | 11.3 | 0.00 | 0.00 | 0.00 | 84 | 1007.1 |
| 20260506010100 | 53 | 311 | 8.7 | 11.3 | 0.00 | 0.00 | 0.00 | 84 | 1006.9 |
| 20260506005556 | 54 | 312 | 6.1 | 10.4 | 0.00 | 0.00 | 0.00 | 85 | 1006.5 |
| 20260506005055 | 54 | 29 | 7.0 | 10.4 | 0.00 | 0.00 | 0.00 | 86 | 1006.9 |
| 20260506004624 | 54 | 272 | 6.1 | 9.6 | 0.00 | 0.00 | 0.00 | 86 | 1007.2 |
| 20260506004050 | 55 | 316 | 5.2 | 10.4 | 0.00 | 0.00 | 0.00 | 86 | 1006.4 |
| 20260506003550 | 55 | 351 | 6.1 | 10.4 | 0.00 | 0.00 | 0.00 | 86 | 1006.0 |
| 20260506003049 | 56 | 313 | 7.0 | 11.3 | 0.00 | 0.00 | 0.00 | 86 | 1005.9 |
| 20260506002548 | 57 | 304 | 6.1 | 14.8 | 0.00 | 0.00 | 0.00 | 86 | 1005.9 |
| 20260506002052 | 57 | 292 | 8.7 | 14.8 | 0.00 | 0.00 | 0.00 | 85 | 1005.7 |
| 20260506001547 | 58 | 291 | 7.0 | 11.3 | 0.00 | 0.00 | 0.00 | 85 | 1005.8 |
| 20260506001047 | 59 | 292 | 6.1 | 10.4 | 0.00 | 0.00 | 0.00 | 83 | 1005.6 |
| 20260506000545 | 60 | 287 | 2.6 | 4.3 | 0.00 | 0.00 | 0.00 | 82 | 1005.3 |
| 20260506000047 | 60 | 11 | 0.0 | 3.5 | 0.00 | 0.00 | 0.00 | 80 | 1005.1 |
| 20260505235545 | 60 | 188 | 0.0 | 6.1 | 0.00 | 0.00 | 0.00 | 79 | 1005.1 |
| 20260505235048 | 61 | 188 | 0.9 | 6.1 | 0.00 | 0.00 | 0.00 | 78 | 1005.1 |
| 20260505234607 | 61 | 220 | 2.6 | 6.1 | 0.00 | 0.00 | 0.00 | 76 | 1005.1 |
| 20260505234044 | 61 | 196 | 3.5 | 7.0 | 0.00 | 0.00 | 0.00 | 76 | 1005.1 |
| 20260505233543 | 61 | 223 | 1.7 | 5.2 | 0.00 | 0.00 | 0.00 | 76 | 1004.8 |
| 20260505233043 | 61 | 204 | 1.7 | 4.3 | 0.00 | 0.00 | 0.00 | 75 | 1004.7 |
| 20260505232543 | 61 | 234 | 0.9 | 4.3 | 0.00 | 0.00 | 0.00 | 74 | 1004.5 |
| 20260505232046 | 61 | 267 | 0.0 | 4.3 | 0.00 | 0.00 | 0.00 | 73 | 1004.4 |
| 20260505231542 | 62 | 301 | 0.0 | 2.6 | 0.00 | 0.00 | 0.00 | 73 | 1004.3 |
| 20260505231042 | 62 | 298 | 0.0 | 5.2 | 0.00 | 0.00 | 0.00 | 73 | 1004.2 |
| 20260505230542 | 62 | 257 | 0.9 | 5.2 | 0.00 | 0.00 | 0.00 | 72 | 1004.2 |
| 20260505230045 | 62 | 215 | 0.0 | 4.3 | 0.00 | 0.00 | 0.00 | 73 | 1004.2 |
| 20260505225543 | 62 | 236 | 0.0 | 6.1 | 0.00 | 0.00 | 0.00 | 74 | 1004.1 |
| 20260505225043 | 62 | 242 | 0.0 | 6.1 | 0.00 | 0.00 | 0.00 | 75 | 1004.0 |
| 20260505224541 | 61 | 225 | 0.0 | 5.2 | 0.00 | 0.00 | 0.00 | 76 | 1004.1 |
| 20260505224040 | 61 | 202 | 1.7 | 7.8 | 0.00 | 0.00 | 0.00 | 76 | 1004.1 |
| 20260505223541 | 61 | 197 | 2.6 | 7.8 | 0.00 | 0.00 | 0.00 | 77 | 1004.1 |
| 20260505223057 | 61 | 173 | 1.7 | 7.8 | 0.00 | 0.00 | 0.00 | 78 | 1004.1 |
| 20260505222541 | 61 | 197 | 2.6 | 7.8 | 0.00 | 0.00 | 0.00 | 78 | 1004.2 |
| 20260505222040 | 60 | 215 | 3.5 | 7.0 | 0.00 | 0.00 | 0.00 | 79 | 1004.1 |
| 20260505221555 | 60 | 221 | 4.3 | 10.4 | 0.00 | 0.00 | 0.00 | 79 | 1003.9 |
| 20260505221039 | 60 | 203 | 3.5 | 10.4 | 0.00 | 0.00 | 0.00 | 79 | 1003.9 |
| 20260505220542 | 60 | 215 | 3.5 | 7.8 | 0.00 | 0.00 | 0.00 | 79 | 1003.8 |
| 20260505220040 | 60 | 203 | 4.3 | 7.8 | 0.00 | 0.00 | 0.00 | 78 | 1003.7 |
| 20260505215539 | 60 | 181 | 3.5 | 7.8 | 0.00 | 0.00 | 0.00 | 78 | 1003.7 |
| 20260505215039 | 60 | 173 | 4.3 | 7.8 | 0.00 | 0.00 | 0.00 | 77 | 1003.8 |
| 20260505214547 | 60 | 183 | 1.7 | 6.1 | 0.00 | 0.00 | 0.00 | 77 | 1003.7 |
| 20260505214038 | 60 | 183 | 3.5 | 6.1 | 0.00 | 0.00 | 0.00 | 78 | 1003.8 |
| 20260505213537 | 60 | 223 | 0.9 | 6.1 | 0.00 | 0.00 | 0.00 | 78 | 1003.6 |
| 20260505213037 | 60 | 205 | 0.0 | 7.8 | 0.00 | 0.00 | 0.00 | 78 | 1003.7 |
| 20260505212537 | 60 | 235 | 0.0 | 7.8 | 0.00 | 0.00 | 0.00 | 77 | 1003.7 |
| 20260505212037 | 60 | 300 | 1.7 | 8.7 | 0.00 | 0.00 | 0.00 | 78 | 1003.8 |
| 20260505211536 | 60 | 198 | 0.9 | 6.1 | 0.00 | 0.00 | 0.00 | 79 | 1003.9 |
| 20260505211035 | 60 | 249 | 1.7 | 6.1 | 0.00 | 0.00 | 0.00 | 80 | 1004.1 |
| 20260505210536 | 61 | 251 | 0.9 | 7.8 | 0.00 | 0.00 | 0.00 | 81 | 1004.2 |
| 20260505210035 | 60 | 261 | 3.5 | 7.8 | 0.00 | 0.00 | 0.00 | 81 | 1004.3 |
| 20260505205537 | 61 | 244 | 1.7 | 5.2 | 0.00 | 0.00 | 0.00 | 83 | 1004.0 |
| 20260505205036 | 61 | 232 | 0.9 | 4.3 | 0.00 | 0.00 | 0.00 | 84 | 1004.2 |
| 20260505204535 | 60 | 164 | 0.9 | 5.2 | 0.00 | 0.00 | 0.00 | 85 | 1004.1 |
| 20260505204034 | 60 | 303 | 0.0 | 5.2 | 0.00 | 0.00 | 0.00 | 86 | 1004.2 |
| 20260505203534 | 60 | 247 | 0.0 | 3.5 | 0.00 | 0.00 | 0.00 | 86 | 1004.2 |
| 20260505203036 | 59 | 296 | 0.9 | 7.0 | 0.00 | 0.00 | 0.00 | 86 | 1004.1 |
| 20260505202534 | 59 | 266 | 0.9 | 7.0 | 0.00 | 0.00 | 0.00 | 86 | 1004.1 |